N9XP-9 Weather Reports


time (UTC)temp
C
wind
direction
speed
KPH
gust
KPH
rain 1hr
cm
rain 24hr
cm
rain mn
cm
humidity
%
barometer
mb
20260903064541 24 124 0.0 0.0 0.00 0.00 0.00 92 1012.5
20260903063039 24 127 0.0 0.0 0.00 0.00 0.00 90 1012.6
20260903061537 25 127 0.0 0.0 0.00 0.00 0.00 90 1012.5
20260903060038 25 127 0.0 0.0 0.00 0.00 0.00 89 1012.7
20260903054534 25 124 0.0 1.6 0.00 0.00 0.00 90 1012.6
20260903053036 25 127 0.0 0.0 0.00 0.00 0.00 91 1012.5
20260903051533 25 127 0.0 0.0 0.00 0.00 0.00 90 1012.4
20260903050028 25 127 0.0 0.0 0.00 0.00 0.00 89 1012.4
20260903044528 25 126 0.0 0.0 0.00 0.00 0.00 88 1012.3
20260903043027 26 126 0.0 1.6 0.00 0.00 0.00 88 1012.3
20260903041530 26 126 0.0 1.6 0.00 0.00 0.00 88 1012.4
20260903040026 25 126 0.0 0.0 0.00 0.00 0.00 89 1012.3
20260903034525 25 127 0.0 0.0 0.00 0.00 0.00 88 1012.4
20260903033025 26 126 0.0 0.0 0.00 0.00 0.00 87 1012.3
20260903031532 26 127 0.0 0.0 0.00 0.00 0.00 86 1012.3
20260903030024 26 127 0.0 0.0 0.00 0.00 0.00 85 1012.1
20260903024523 27 126 0.0 0.0 0.00 0.00 0.00 84 1012.1
20260903023028 27 129 0.0 0.0 0.00 0.00 0.00 81 1012.1
20260903021537 28 125 0.0 3.2 0.00 0.00 0.00 80 1012.0
20260903020023 28 140 0.0 1.6 0.00 0.00 0.00 79 1011.9
20260903014523 28 135 0.0 1.6 0.00 0.00 0.00 77 1011.8
20260903013018 28 138 0.0 3.2 0.00 0.00 0.00 76 1011.7
20260903011522 29 162 0.0 4.8 0.00 0.00 0.00 74 1011.5
20260903010019 29 120 0.0 8.0 0.00 0.00 0.00 72 1011.2
20260903004527 30 182 1.6 8.0 0.00 0.00 0.00 72 1011.1
20260903003018 30 156 1.6 9.7 0.00 0.00 0.00 72 1011.0
20260903001516 30 134 1.6 6.4 0.00 0.00 0.00 70 1011.1
20260903000014 31 194 3.2 11.3 0.00 0.00 0.00 67 1011.3
20260902234513 31 148 3.2 9.7 0.00 0.00 0.00 66 1011.4
20260902233017 32 137 0.0 4.8 0.00 0.00 0.00 65 1011.4
20260902231512 32 147 1.6 6.4 0.00 0.00 0.00 63 1011.4
20260902230011 33 210 1.6 8.0 0.00 0.00 0.00 60 1011.4
20260902224510 32 202 1.6 8.0 0.00 0.00 0.00 61 1011.4
20260902223009 33 157 4.8 11.3 0.00 0.00 0.00 60 1011.6
20260902221508 33 155 1.6 11.3 0.00 0.00 0.00 57 1011.6
20260902220009 33 143 4.8 12.9 0.00 0.00 0.00 57 1011.7
20260902214510 33 164 4.8 11.3 0.00 0.00 0.00 56 1011.7
20260902213006 34 108 4.8 17.7 0.00 0.00 0.00 55 1011.8
20260902211503 34 164 1.6 14.5 0.00 0.00 0.00 55 1011.9
20260902210002 34 148 4.8 14.5 0.00 0.00 0.00 55 1012.0
20260902204500 34 146 8.0 14.5 0.00 0.00 0.00 53 1012.0
20260902203107 34 135 4.8 16.1 0.00 0.00 0.00 53 1011.9
20260902201559 34 136 4.8 14.5 0.00 0.00 0.00 54 1012.0
20260902200058 34 195 3.2 16.1 0.00 0.00 0.00 52 1012.2
20260902194556 34 148 3.2 12.9 0.00 0.00 0.00 52 1012.3
20260902193100 34 149 6.4 14.5 0.00 0.00 0.00 53 1012.3
20260902191602 35 171 1.6 11.3 0.00 0.00 0.00 53 1012.5
20260902190049 33 160 4.8 16.1 0.00 0.00 0.00 55 1012.5
20260902184549 33 134 4.8 12.9 0.00 0.00 0.00 55 1012.7
20260902183047 33 219 3.2 14.5 0.00 0.00 0.00 58 1012.7
20260902181547 33 141 3.2 11.3 0.00 0.00 0.00 56 1012.8
20260902180041 33 103 1.6 14.5 0.00 0.00 0.00 60 1012.8
20260902174550 32 169 4.8 14.5 0.00 0.00 0.00 59 1012.9
20260902173038 32 158 3.2 9.7 0.00 0.00 0.00 59 1012.9
20260902171539 32 195 3.2 8.0 0.00 0.00 0.00 60 1013.0
20260902170035 31 164 1.6 9.7 0.00 0.00 0.00 61 1013.2
20260902164534 31 110 1.6 9.7 0.00 0.00 0.00 65 1013.3
20260902163028 30 130 1.6 8.0 0.00 0.00 0.00 67 1013.3
20260902161530 30 124 3.2 9.7 0.00 0.00 0.00 69 1013.4
20260902160029 29 143 3.2 8.0 0.00 0.00 0.00 68 1013.6
20260902154522 29 131 3.2 9.7 0.00 0.00 0.00 69 1013.5
20260902151514 28 188 3.2 9.7 0.00 0.00 0.00 72 1013.8
20260902150012 28 155 1.6 8.0 0.00 0.00 0.00 73 1013.7
20260902144510 27 191 1.6 9.7 0.00 0.00 0.00 74 1013.6
20260902143009 27 18 0.0 4.8 0.00 0.00 0.00 73 1014.0
20260902141508 27 191 1.6 6.4 0.00 0.00 0.00 75 1013.7
20260902140004 27 136 3.2 6.4 0.00 0.00 0.00 78 1013.8
20260902134504 26 138 1.6 6.4 0.00 0.00 0.00 79 1013.7
20260902133057 26 150 1.6 8.0 0.00 0.00 0.00 81 1013.7
20260902131556 25 94 0.0 3.2 0.00 0.00 0.00 84 1013.9
20260902130055 24 152 1.6 6.4 0.00 0.00 0.00 85 1014.0
20260902124551 24 133 0.0 4.8 0.00 0.00 0.00 86 1014.0
20260902123051 23 146 0.0 1.6 0.00 0.00 0.00 88 1013.9
20260902121550 23 137 0.0 1.6 0.00 0.00 0.00 90 1013.7
20260902120049 22 125 0.0 1.6 0.00 0.00 0.00 91 1013.7
20260902114614 22 126 0.0 0.0 0.00 0.00 0.00 91 1013.7
20260902113055 22 126 0.0 1.6 0.00 0.00 0.00 90 1013.6
20260902111557 22 124 0.0 1.6 0.00 0.00 0.00 90 1013.7
20260902110051 22 123 0.0 0.0 0.00 0.00 0.00 91 1013.7
20260902104547 22 121 0.0 0.0 0.00 0.00 0.00 91 1013.9
20260902103059 22 124 0.0 0.0 0.00 0.00 0.00 89 1013.7
20260902101544 23 124 0.0 0.0 0.00 0.00 0.00 88 1013.8
20260902100104 23 122 0.0 1.6 0.00 0.00 0.00 88 1013.7
20260902094541 23 124 0.0 1.6 0.00 0.00 0.00 87 1013.7
20260902093102 23 122 0.0 1.6 0.00 0.00 0.00 86 1013.7
20260902091539 23 152 0.0 3.2 0.00 0.00 0.00 89 1013.4
20260902090038 22 321 0.0 0.0 0.00 0.00 0.00 93 1013.4
20260902084541 22 152 0.0 0.0 0.00 0.00 0.00 93 1013.3
20260902083039 22 151 0.0 0.0 0.00 0.00 0.00 94 1013.3
20260902081536 22 152 0.0 0.0 0.00 0.00 0.00 94 1013.3
20260902080034 22 153 0.0 0.0 0.00 0.00 0.00 93 1013.3
20260902074538 22 153 0.0 0.0 0.00 0.00 0.00 93 1013.3
20260902073032 22 151 0.0 0.0 0.00 0.00 0.00 92 1013.2
20260902071531 23 152 0.0 0.0 0.00 0.00 0.00 91 1013.1